STARLINK-36175

Last updated on Fri Dec 19 2025 00:02:09 GMT+0000 (Coordinated Universal Time)

1 67012U 25293K 25351.83335648 -.00974747 30585-3 -21670-2 0 9995 2 67012 69.9934 309.0186 0004139 268.0112 125.4057 15.97689454 2387
UTC large
Height (km)
Speed (km/s)
/
Latitude / Longitude
Inclination (degrees)
Orbital Period (minutes)
Azimuth
Elevation
Range (km)
Doppler Factor

Next 0 passes for location: London (51.5072 / 0.1276)

Sorry there are no passes over London.